Weather History for KF44 - November, 2012

Change the Weather History Date:

Monday, November 12, 2012

  Actual Average (KTYR) Record (KTYR)
Temperature  
Mean Temperature 44 °F 57 °F  
Max Temperature 56 °F 67 °F 86 °F (1902)
Min Temperature 33 °F 47 °F 20 °F (1901)
Degree Days  
Heating Degree Days 20 9  
Month to date heating degree days 83  
Since 1 July heating degree days 160  
Cooling Degree Days 0 1  
Month to date cooling degree days 14  
Year to date cooling degree days 2407  
Moisture  
Dew Point 30 °F    
Average Humidity 62    
Maximum Humidity 96    
Minimum Humidity 26    
Precipitation  
Precipitation 0.00 in 0.14 in 2.17 in (1914)
Month to date precipitation 1.73  
Year to date precipitation 39.18  
Snow  
Snow - - - ()
Month to date snowfall  
Since 1 July snowfall  
Since 1 September snowfall  
Snow Depth -    
Sea Level Pressure  
Sea Level Pressure 30.41 in    
Wind  
Wind Speed 6 mph ()    
Max Wind Speed 13 mph    
Max Gust Speed -    
Visibility 10.0 miles    
Events      
T = Trace of Precipitation, MM = Missing Value Source: Averaged Metar Reports

Daily Weather History Graph

Daily Weather History Graph

Search for Another Location

Airport or City:

Trip Planner

Search our weather history database for the weather conditions in past years. The results will help you decide how hot, cold, wet, or windy it might be!

Date:

Astronomy

Nov. 12, 2012 Rise Set
Actual Time 6:50 AM CST 5:24 PM CST
Civil Twilight 6:24 AM CST 5:50 PM CST
Nautical Twilight 5:54 AM CST 6:19 PM CST
Astronomical Twilight 5:25 AM CST 6:48 PM CST
Moon 5:19 AM CST (11/12) 4:28 PM CST (11/12)
Length of Visible Light 11h 26m
Length of Day
10h 34m
Waning Crescent, 2% of the Moon is Illuminated
Nov 12
Waning Crescent
Nov 13
New
Nov 20
First Quarter
Nov 28
Full
Dec 6
Last Quarter

Hourly Weather History & Observations

Time (CST) Temp. Windchill Dew Point Humidity Pressure Visibility Wind Dir Wind Speed Gust Speed Precip Events Conditions
12:15 AM 52.5 °F - 44.8 °F 75% 30.23 in 10.0 mi North 5.8 mph - N/A   Scattered Clouds
12:35 AM 51.3 °F - 43.9 °F 76% 30.24 in 10.0 mi North 6.9 mph - N/A   Scattered Clouds
12:55 AM 49.8 °F - 42.4 °F 76% 30.25 in 10.0 mi NNW 8.1 mph - N/A   Clear
1:15 AM 48.7 °F - 41.5 °F 76% 30.26 in 10.0 mi North 9.2 mph - N/A   Scattered Clouds
1:55 AM 46.4 °F 40.7 °F 39.6 °F 77% 30.27 in 10.0 mi North 12.7 mph - N/A   Scattered Clouds
2:15 AM 45.7 °F 41.0 °F 38.8 °F 77% 30.28 in 10.0 mi North 9.2 mph - N/A   Mostly Cloudy
2:35 AM 44.8 °F 41.0 °F 38.1 °F 77% 30.29 in 10.0 mi NNW 6.9 mph - N/A   Scattered Clouds
2:55 AM 43.3 °F 37.7 °F 36.7 °F 77% 30.29 in 10.0 mi NNW 10.4 mph - N/A   Clear
3:15 AM 42.3 °F 37.9 °F 36.0 °F 78% 30.29 in 10.0 mi NNW 6.9 mph - N/A   Clear
3:35 AM 41.4 °F 36.2 °F 35.2 °F 79% 30.30 in 10.0 mi NNW 8.1 mph - N/A   Clear
3:55 AM 40.5 °F 35.8 °F 34.0 °F 78% 30.31 in 10.0 mi North 6.9 mph - N/A   Clear
4:15 AM 39.7 °F 33.7 °F 33.3 °F 78% 30.32 in 10.0 mi North 9.2 mph - N/A   Clear
4:35 AM 39.2 °F 32.5 °F 32.0 °F 75% 30.33 in 10.0 mi North 10.4 mph - N/A   Clear
4:55 AM 38.5 °F 33.4 °F 31.6 °F 76% 30.34 in 10.0 mi North 6.9 mph - N/A   Clear
5:15 AM 37.9 °F 32.7 °F 31.6 °F 78% 30.35 in 10.0 mi North 6.9 mph - N/A   Clear
5:35 AM 37.6 °F 33.1 °F 31.6 °F 79% 30.37 in 10.0 mi North 5.8 mph - N/A   Clear
6:15 AM 37.0 °F 33.3 °F 31.6 °F 81% 30.38 in 10.0 mi North 4.6 mph - N/A   Clear
6:55 AM 36.5 °F 31.0 °F 30.2 °F 78% 30.40 in 10.0 mi North 6.9 mph - N/A   Clear
7:15 AM 36.5 °F 31.0 °F 29.5 °F 76% 30.42 in 10.0 mi North 6.9 mph - N/A   Clear
7:35 AM 36.9 °F 31.4 °F 29.3 °F 74% 30.44 in 10.0 mi NNE 6.9 mph - N/A   Clear
7:55 AM 37.4 °F 32.1 °F 29.3 °F 73% 30.45 in 10.0 mi NNE 6.9 mph - N/A   Clear
8:15 AM 38.3 °F 31.9 °F 29.5 °F 71% 30.46 in 10.0 mi NNE 9.2 mph - N/A   Clear
8:35 AM 39.0 °F 32.3 °F 29.3 °F 68% 30.47 in 10.0 mi North 10.4 mph - N/A   Clear
8:55 AM 40.3 °F 33.4 °F 29.1 °F 64% 30.47 in 10.0 mi North 11.5 mph - N/A   Clear
9:15 AM 41.2 °F 35.5 °F 28.9 °F 62% 30.47 in 10.0 mi NNE 9.2 mph - N/A   Clear
9:35 AM 42.4 °F 37.0 °F 28.6 °F 58% 30.47 in 10.0 mi NNE 9.2 mph - N/A   Clear
9:55 AM 44.1 °F 40.1 °F 28.6 °F 55% 30.47 in 10.0 mi NE 6.9 mph - N/A   Clear
10:15 AM 45.1 °F 41.4 °F 27.7 °F 50% 30.46 in 10.0 mi NE 6.9 mph - N/A   Clear
10:35 AM 46.4 °F 42.9 °F 27.0 °F 47% 30.46 in 10.0 mi NNE 6.9 mph - N/A   Clear
10:55 AM 47.7 °F - 27.0 °F 45% 30.46 in 10.0 mi NNE 10.4 mph - N/A   Clear
11:15 AM 49.1 °F - 26.2 °F 41% 30.46 in 10.0 mi ENE 8.1 mph - N/A   Clear
11:35 AM 50.5 °F - 26.4 °F 39% 30.45 in 10.0 mi North 9.2 mph - N/A   Clear
11:55 AM 51.6 °F - 25.5 °F 36% 30.45 in 10.0 mi ENE 10.4 mph - N/A   Clear
12:15 PM 52.5 °F - 25.0 °F 34% 30.44 in 10.0 mi NE 4.6 mph - N/A   Clear
12:35 PM 53.4 °F - 24.8 °F 33% 30.44 in 10.0 mi North 9.2 mph - N/A   Clear
12:55 PM 54.1 °F - 24.4 °F 32% 30.44 in 10.0 mi North 9.2 mph - N/A   Clear
1:15 PM 54.3 °F - 24.6 °F 32% 30.43 in 10.0 mi NE 5.8 mph - N/A   Clear
1:35 PM 55.0 °F - 23.4 °F 29% 30.42 in 10.0 mi NE 8.1 mph - N/A   Clear
1:55 PM 55.6 °F - 23.0 °F 28% 30.42 in 10.0 mi North 5.8 mph - N/A   Clear
2:55 PM 56.3 °F - 23.0 °F 28% 30.42 in 10.0 mi North 9.2 mph - N/A   Clear
3:15 PM 56.5 °F - 22.1 °F 26% 30.43 in 10.0 mi North 9.2 mph - N/A   Clear
3:35 PM 56.5 °F - 21.9 °F 26% 30.43 in 10.0 mi NNE 9.2 mph - N/A   Clear
3:55 PM 56.5 °F - 22.3 °F 27% 30.43 in 7.0 mi NE 6.9 mph - N/A   Clear
4:15 PM 56.1 °F - 21.9 °F 27% 30.43 in 10.0 mi NNE 9.2 mph - N/A   Clear
4:35 PM 55.6 °F - 21.9 °F 27% 30.43 in 10.0 mi NNE 8.1 mph - N/A   Clear
4:55 PM 54.9 °F - 22.8 °F 29% 30.44 in 10.0 mi NNE 5.8 mph - N/A   Clear
5:15 PM 53.4 °F - 24.4 °F 33% 30.44 in 10.0 mi NNE 3.5 mph - N/A   Clear
5:35 PM 52.2 °F - 26.2 °F 37% 30.44 in 10.0 mi Calm Calm - N/A   Clear
5:55 PM 50.2 °F - 28.2 °F 43% 30.44 in 10.0 mi Calm Calm - N/A   Clear
6:15 PM 48.2 °F - 29.5 °F 48% 30.45 in 10.0 mi Calm Calm - N/A   Clear
6:55 PM 45.3 °F - 31.5 °F 58% 30.46 in 10.0 mi Calm Calm - N/A   Clear
7:15 PM 41.7 °F - 33.1 °F 71% 30.46 in 10.0 mi Calm Calm - N/A   Clear
7:35 PM 42.1 °F - 32.9 °F 70% 30.46 in 10.0 mi Calm Calm - N/A   Clear
7:55 PM 42.3 °F - 33.1 °F 70% 30.46 in 10.0 mi Calm Calm - N/A   Clear
8:15 PM 41.2 °F - 32.0 °F 70% 30.47 in 10.0 mi Calm Calm - N/A   Clear
8:35 PM 39.2 °F - 30.6 °F 71% 30.47 in 10.0 mi Calm Calm - N/A   Clear
8:55 PM 39.0 °F - 30.6 °F 72% 30.48 in 10.0 mi Calm Calm - N/A   Clear
9:15 PM 38.3 °F - 31.6 °F 77% 30.48 in 10.0 mi Calm Calm - N/A   Clear
9:35 PM 37.0 °F - 32.0 °F 82% 30.49 in 10.0 mi Calm Calm - N/A   Clear
9:55 PM 36.7 °F - 32.9 °F 86% 30.49 in 10.0 mi Calm Calm - N/A   Clear
10:15 PM 36.5 °F - 32.5 °F 86% 30.48 in 10.0 mi Calm Calm - N/A   Clear
10:35 PM 36.1 °F - 32.7 °F 87% 30.48 in 10.0 mi Calm Calm - N/A   Clear
10:55 PM 35.2 °F - 32.9 °F 91% 30.48 in 10.0 mi Calm Calm - N/A   Clear
11:15 PM 34.0 °F - 32.2 °F 93% 30.48 in 10.0 mi Calm Calm - N/A   Clear
11:35 PM 33.1 °F - 32.0 °F 96% 30.48 in 10.0 mi Calm Calm - N/A   Clear
11:55 PM 34.0 °F - 32.0 °F 92% 30.48 in 10.0 mi Calm Calm - N/A   Clear